Location: New Plymouth
(39.0670°S, 174.0830°E)
Time: 12:28:04
(UTC+13:00)

CZ-2C R/B - Pass Details

Date: 24 January 2019
Orbit: 785 x 870 km, 98.3° (Epoch: 19 February)

Event Time Altitude Azimuth Distance (km) Brightness Sun altitude
Exits shadow 21:48:36 13° 36° (NE) 2,250 4.3 -11.2°
Maximum altitude 21:53:18 51° 108° (ESE) 1,049 3.0 -11.9°
Drops below altitude 10° 21:58:30 10° 182° (S) 2,438 5.7 -12.7°
Sets 22:00:54 0° 187° (S) 3,365 6.6 -13.1°
